Showing default

KINEIS-4A, 63303

Orbit data source: Space-Track

KINEIS-4A, 63303 is a French payload satellite in SSO that was launched on Tue, 18 Mar 2025 UTC via an ELECTRON launch vehicle from the Rocket Lab Launch Complex (RLLC). Payload-class satellites include a variety of spacecraft equipped with specific instruments for various scientific and technological missions. These include communications satellites like Starlink; space stations such as the ISS; scientific satellites like the Hubble; Earth observation satellites from companies like Planet Labs, Umbra, and HawkEye 360; GPS; miniature CubeSats for education and research; and military/defense satellites.

Loading next visibility...
Identifier
63303, 2025-056D
Orbit
SSO
Last TLE update
9 hours ago
Origin
Manufacturer
KINEIS
Mission
Operational Commercial Communications
Bus & Motor
CUBESAT 16U, Unknown motor
Mass
28 kg wet, 28 kg dry
Launch date (UTC)
2025-03-18 (2 months ago)
Launch vehicle
ELECTRON
Launch site
Rocket Lab Launch Complex (RLLC)
Object type
Payload
Rocket body
Debris
Shape & HBR
Box + 2 Pan + 1 Ant, 1.6 m
Radar Cross Section
0.229 m², Medium (>0.1 m² and < 1m²)

Expand to show TLE details & history

TLE from 9 hours ago
0 KINEIS-4A
1 63303U 25056D   25128.86338331  .00002572  00000-0  41352-3 0  9990
2 63303  97.9761 255.3455 0003358 123.1692 236.9838 14.72423595  7635
Epoch: 2025-05-08T20:43Z
Definitive object data (Epoch: 2025-05-08T20:43:16.317Z)
Latitude
-0.00005°
Longitude
77.59974°
Altitude
657.638 km
Speed
7.528 km/s
True Right ascension
17h 01m 22s
True Declination
0° 00' 00"
Sunlit
Object was in full shadow at TLE epoch
Visualization TLE readout
Latitude
-68.53733°
Longitude
98.74753°
Altitude
681.415 km
Speed
7.514 km/s
Apparent Right ascension
00h 12m 45s
Apparent Declination
-67° 54' 26"
Sunlit
Object is in full shadow
Visualization observer readout
Local Sidereal Time
14:20:10
Azimuth
158.567° S
Elevation
-57.095°
Doppler factor
1
Orbital elements
Apogee altitude
652.756 km
Perigee altitude
648.036 km
Semi-major axis
7,028.533 km
Eccentricity
0.0003358
Inclination
97.9761°
RAAN
255.3455°
Arg. of periapsis
123.1692°
True anomaly
236.95154°
Mean anomaly
236.9838°
Eccentric anomaly
236.96767°
Mean motion
3.68338 °/min
BSTAR
0.00041352
Orbital period
97.74 mins
Loading maneuver chart data...
Loading SW <> Apogee altitude chart data...
Loading historical data...
Loading historical data...
Loading historical data...
Loading historical data...
Loading historical data...
Loading historical data...
Loading historical data...

KINEIS-4A Visibility forecast

Observer location: undefined°, undefined°

Span
Click to sort rows by Start time (UTC) header in descending order
Start Az.
Max El. time (UTC)
Max El. Az.
Max El.
End time (UTC)
End Az.
8 mins2025-05-09 08:15:23.182Z159.12° S2025-05-09 08:19:23.182Z65.636° ENE43.87°2025-05-09 08:23:23.182Z351.652° N
4 mins2025-05-09 20:10:23.182Z72.333° E2025-05-09 20:11:23.182Z87.795° E15.434°2025-05-09 20:14:23.182Z130.456° SE
6 mins2025-05-09 21:46:23.182Z346.04° N2025-05-09 21:48:23.182Z298.27° NW34.764°2025-05-09 21:52:23.182Z218.258° SW
|